This is the latest recevied weather packets stored in our database for station/object KP4FJC. If no packets are shown the sender has not sent any weather packets the latest 10 day(s).
| Time | Temp. | Humidity | Pressure | Rain* | Wind** | Luminosity | Snow |
|---|---|---|---|---|---|---|---|
| 1778024684 | 27.78° C | 72% | 1018.3 hPa | 0 mm | - | 0 W/m² | - |
| 1778024381 | 27.78° C | 72% | 1018.2 hPa | 0 mm | - | 0 W/m² | - |
| 1778024079 | 28.33° C | 71% | 1018.3 hPa | 0 mm | - | 0 W/m² | - |
| 1778023776 | 28.33° C | 71% | 1018.2 hPa | 0 mm | - | 0 W/m² | - |
| 1778023474 | 28.33° C | 70% | 1018.2 hPa | 0 mm | - | 0 W/m² | - |
| 1778023170 | 28.33° C | 71% | 1018 hPa | 0 mm | - | 0 W/m² | - |
| 1778022868 | 28.33° C | 70% | 1018.2 hPa | 0 mm | - | 0 W/m² | - |
| 1778022566 | 28.33° C | 70% | 1018.1 hPa | 0 mm | - | 0 W/m² | - |
| 1778022263 | 28.33° C | 70% | 1018 hPa | 0 mm | - | 0 W/m² | - |
| 1778021960 | 28.89° C | 70% | 1018 hPa | 0 mm | - | 1 W/m² | - |
| 1778021657 | 28.89° C | 70% | 1017.8 hPa | 0 mm | - | 2 W/m² | - |
| 1778021353 | 28.89° C | 69% | 1018.1 hPa | 0 mm | - | 3 W/m² | - |
| 1778021050 | 28.89° C | 68% | 1017.7 hPa | 0 mm | - | 6 W/m² | - |
| 1778020747 | 29.44° C | 68% | 1017.8 hPa | 0 mm | - | 9 W/m² | - |
| 1778020444 | 29.44° C | 67% | 1017.7 hPa | 0 mm | - | 13 W/m² | - |
| 1778020140 | 30° C | 66% | 1017.7 hPa | 0 mm | - | 20 W/m² | - |
| 1778019836 | 30° C | 65% | 1017.6 hPa | 0 mm | - | 24 W/m² | - |
| 1778019533 | 30.56° C | 64% | 1017.5 hPa | 0 mm | - | 29 W/m² | - |
| 1778019230 | 30° C | 64% | 1017.3 hPa | 0 mm | - | 35 W/m² | - |
| 1778018927 | 30.56° C | 63% | 1017.5 hPa | 0 mm | - | 42 W/m² | - |
| 1778018624 | 30.56° C | 62% | 1017.4 hPa | 0 mm | - | 52 W/m² | - |
| 1778018322 | 30.56° C | 61% | 1017.4 hPa | 0 mm | - | 66 W/m² | - |
| 1778018020 | 30.56° C | 61% | 1017.1 hPa | 0 mm | - | 78 W/m² | - |
| 1778017718 | 30.56° C | 60% | 1017.3 hPa | 0 mm | - | 87 W/m² | - |
| 1778017415 | 30.56° C | 61% | 1017 hPa | 0 mm | - | 97 W/m² | - |
* Rain latest hour (hover to see other rain measurements)
** Current wind speed in m/s (hover to see current wind gust speed)